,Unnamed: 0,Unnamed: 0.1,rosbagTimestamp,# of samples,Fx,Fy,Fz,Tx,Ty,Tz,x.v,y.v,z.v,emg_RFsgl,emg_RAsgl,Rx.v,Ry.v,Rz.v,w.v,disp_x,disp_y,disp_z,step_size,disp_x_f,disp_y_f,disp_z_f,speed_x,speed_y,speed_z,acc_x,acc_y,acc_z
0,21,21,1583257165419171960,21,-2.1628770000000004,-9.512538000000001,23.084284,1.312291,-2.929089,0.598719,150.2967859213438,-96.105134481675,29.814842168081256,-5.296773138301734,-14.909381316110563,0.0222394984939,0.0637104369821,0.997109935723,0.0349021633817,-0.021169685046885437,-0.034522575021881614,0.023922495335938262,0.010047833600000002,3.7523996652023466,-2.4115455127516787,0.7513516636017971,289.1700805022886,-185.84022819427787,57.90119401834667,0.0,0.0,0.0
1,22,22,1583257165428951220,22,-2.1581960000000002,-9.511718,23.081261,1.318471,-2.926885,0.598641,150.27330194271886,-96.14343254450311,29.840576534821878,-5.296773138301734,-14.906157150712485,0.0222727939433,0.06377956946709999,0.9971027462819999,0.0349600132438,-0.023483978624938118,-0.038298062828118866,0.025734366740621798,0.010040064,1.8700616664175835,-1.2164221842006426,0.3828539699080468,144.11201654156852,-93.7407878462492,29.503763771645232,0.0,0.0,0.0
2,23,23,1583257165438795008,23,-2.175911,-9.474046,23.114887000000003,1.322601,-2.9229830000000003,0.598504,150.24727525275006,-96.1857759643453,29.86801118657969,-5.296588171767944,-14.903163282842836,0.0222952284931,0.0638365945615,0.9970967446969999,0.035012764742699994,-0.02602668996880197,-0.04234341984218304,0.027434651757811682,0.010521471999999999,0.9282481877658242,-0.6198219180618046,0.19923260521609354,71.53331924409295,-47.765155616319426,15.353404122508831,0.0,0.0,0.0
3,24,24,1583257165448742499,24,-2.1972970000000003,-9.509809,23.151392,1.32212,-2.921302,0.598438,150.21983244295313,-96.23021252407813,29.89630113653125,-5.2953858892983074,-14.901551200143794,0.0223102131636,0.0639075207425,0.997090016268,0.0350654051818,-0.027442809796923484,-0.044436559732830005,0.02828994995156364,0.009989094399999999,0.4567155358165053,-0.3224557066601605,0.01565400543382811,35.195736073487524,-24.84931003433314,1.206340053129506,0.0,0.0,0.0
4,25,25,1583257165459154035,25,-2.197474,-9.508986,23.187129,1.322116,-2.919848,0.598384,150.18953732276563,-96.27911112767187,29.926167782892193,-5.2953858892983074,-14.901551200143794,0.0222795335376,0.0640250612351,0.997081468187,0.0351135261281,-0.030295120187503244,-0.04889860359374154,0.02986664636094005,0.0100653056,0.22023060680395615,-0.1748599198314075,0.016898779851327816,16.971566991954138,-13.475178980313974,1.3022657408577,0.0,0.0,7.392293283637593
5,26,26,1583257165468379860,26,-2.19756,-9.483924,23.223081999999998,1.322403,-2.918388,0.597534,150.15767503475,-96.33033419240938,29.9568384729922,-5.2953858892983074,-14.899017927331016,0.022225613251400003,0.0640729093765,0.997078256321,0.035151602674,-0.03186228801561697,-0.05122306473751337,0.030670690100006226,0.010027955200000004,0.10127739802307333,-0.02738035605984308,0.01815673688750028,7.8047105725384345,-2.1100043898386818,1.3992073168821706,0.0,0.0,7.470580386991718
6,27,27,1583257165478162818,27,-2.226388,-9.514312,23.261373999999996,1.317013,-2.908033,0.595007,150.12264759585938,-96.38646428437343,29.989013097260948,-5.2953858892983074,-14.895793761932929,0.022141718292999997,0.064206451765,0.9970714323790001,0.035154439221099995,-0.035027438890637086,-0.056130091964050166,0.032174624268744616,0.009999667200000005,-0.017834068301561957,-0.029656756651326083,0.019459894041562363,-1.3743416017941394,-2.285429984398609,1.4996321364028131,0.0,-13.518771406862033,7.739008564175989
7,28,28,1583257165498196378,28,-2.250721,-9.499858999999999,23.262701,1.314678,-2.903452,0.5933609999999999,150.08577337690625,-96.4450675388344,30.021999001715628,-5.2945997815297,-14.895793761932929,0.022098400430299998,0.0642807226711,0.997068432471,0.0351310455529,-0.03687421895313037,-0.05860325446096226,0.032985904454683634,0.0104810624,-0.019370835507810116,-0.03197989846937403,0.020742965569686862,-1.4927690446022852,-2.4644575844628838,1.59850910319253,-9.126339469669741,-13.796351706029153,7.61972684081419
8,29,29,1583257165508137578,29,-2.2554920000000003,-9.497346,23.301061999999998,1.3109629999999999,-2.8998470000000003,0.590928,150.04710774481242,-96.50625672930781,30.055798642339074,-5.2939986402948795,-14.893490786648586,0.022040918442000002,0.0643623791171,0.9970644315449999,0.0351312029002,-0.038665632093824336,-0.06118919047341365,0.03379964062344598,0.010529587200000004,-0.02096332650937569,-0.03439028007507616,0.02203261035820301,-1.6154907139895616,-2.650208118827813,1.6978926232298237,-9.457264199542644,-14.314439230383394,7.658763205927117
9,30,30,1583257165518773840,30,-2.259804,-9.493706999999999,23.338459,1.308494,-2.894061,0.5884560000000001,150.0065655860156,-96.57011122620311,30.09040622917501,-5.294183606828671,-14.893030191591716,0.022070803594299998,0.0644559405483,0.9970584464710001,0.035110762984300006,-0.04054215879682488,-0.06385449689530276,0.034607586835935684,0.010532032000000002,-0.02258670348046792,-0.036840466319685565,0.023288218165781242,-1.7405925398343804,-2.8390261064664233,1.7946531613366083,-9.640685502134223,-14.550825486973414,7.4566291147653985
10,31,31,1583257165539300299,31,-2.2620929999999997,-9.492732,23.375225,1.306022,-2.892618,0.5884199999999999,149.9640184525469,-96.63663350933123,30.125876253873443,-5.292056491690084,-14.891648406421108,0.0220205333206,0.0645251909346,0.9970559985359999,0.035084635259300015,-0.042547133468701766,-0.0665222831281227,0.03547002469843363,0.0110282496,-0.024273113473434197,-0.03937191156655899,0.02454205296953109,-1.8705518610517344,-3.034106132886277,1.8912770669667047,-10.015017250679367,-15.033395154398091,7.446099846081778
11,32,32,1583257165548446091,32,-2.287153,-9.502821999999998,23.413037999999997,1.302144,-2.8887709999999998,0.587557,149.91944805204685,-96.7059561629125,30.16219528703282,-5.289975618184943,-14.891418108892676,0.022014774410900002,0.0645373846151,0.997056645767,0.035047408266199995,-0.04457040050004935,-0.06932265358126699,0.036319033159376346,0.011475660800000002,-0.026021753317188256,-0.04198939508202955,0.025790478300234555,-2.005306783102556,-3.2358165012942814,1.987484103953835,-10.384579238420331,-15.5443472643907,7.413974819485237
12,33,33,1583257165559108020,33,-2.316891,-9.485395,23.486431000000003,1.293662,-2.879126,0.588195,149.87276799198432,-96.77814287185473,30.199423116854692,-5.289975618184943,-14.890496918778934,0.0219563558923,0.0646030882115,0.997057365679,0.0349423664591,-0.046680060062527666,-0.07218670894221191,0.03722782982187312,0.010973580800000004,-0.02780151115781564,-0.044631377461718816,0.02698487955140614,-2.1424597422666345,-3.4394148185271485,2.0795278990634634,-10.569378472765932,-15.689837713804405,7.093144125454473
13,34,34,1583257165578007492,34,-2.341951,-9.495486,23.524244,1.289785,-2.875279,0.587331,149.82383251109374,-96.85321431301406,30.237561789500013,-5.2880797112135935,-14.88911513360833,0.0219463130308,0.0646218046753,0.99705870091,0.034875903492300006,-0.04893548089057731,-0.07507144115935205,0.03813867264532078,0.011364108800000005,-0.029649755426562764,-0.047354668983749085,0.028169053883828173,-2.2848904510575334,-3.6492790384713834,2.170783580117565,-10.976096152284772,-16.17270514614857,7.032409921953992
14,35,35,1583257165588200644,35,-2.321825,-9.481798000000001,23.631437999999996,1.288709,-2.873334,0.588016,149.77259133946873,-96.93126372111877,30.276632186470323,-5.286322529142588,-14.890496918778934,0.0218798050757,0.064629569271,0.997061643757,0.034819124826400004,-0.05124117162500852,-0.07804940810470384,0.039070396970309666,0.011434713600000005,-0.031566864403907866,-0.05016163504132791,0.029344829644687744,-2.4326280607933675,-3.865591444733546,2.2613920445019327,-11.385060311325669,-16.66961984687757,6.982533652582957
15,36,36,1583257165598684818,36,-2.32008,-9.458838,23.63159,1.290224,-2.875498,0.587241,149.71896201529685,-97.01233907601251,30.31663535431563,-5.290114343085286,-14.89233929900641,0.0218322413528,0.0646914809295,0.9970611733660001,0.034747404189,-0.05362932417187949,-0.08107535489374129,0.040003167845306116,0.011950054400000005,-0.03351470384453421,-0.0529770566576552,0.03046110363992138,-2.582733843254331,-4.082555459252331,2.347415141683644,-11.56755811504295,-16.719834543827442,6.62917283779001
16,37,37,1583257165608028733,37,-2.3210700000000006,-9.457496,23.739767,1.288965,-2.873319,0.587119,149.6628334280625,-97.09647515649063,30.357576267015627,-5.290669242686658,-14.894872571819189,0.0217561141572,0.0647292434896,0.997064311836,0.0346345867301,-0.056128587234354654,-0.08413608047811749,0.04094091269999822,0.011434176000000004,-0.03553536185156503,-0.05587234718953127,0.031569440164140164,-2.7384512216506933,-4.305674388705431,2.4328265558525795,-12.000002895228155,-17.19414895749335,6.582034888256893
17,38,38,1583257165628409491,38,-2.3446630000000006,-9.418237999999999,23.775515,1.286937,-2.867269,0.5869989999999999,149.60408857482813,-97.18370109442034,30.399465592489072,-5.295570855832097,-14.899939117444749,0.0217264643436,0.0647359224639,0.997068257825,0.034526950757699994,-0.05874485323437284,-0.08722593792971622,0.041889325473444934,0.011974950400000005,-0.03763342937343879,-0.05884517139242292,0.03267060281656242,-2.900133986902394,-4.534768272824776,2.5176851320324936,-12.45971176184556,-17.654595145530767,6.5394316956192675
18,39,39,1583257165638212580,39,-2.346317,-9.416959,23.775579,1.285715,-2.8650990000000003,0.586978,149.5426472899375,-97.27406849013128,30.44230516243125,-5.301258576746144,-14.903393580371265,0.0217497292206,0.0647069616113,0.9970713744959999,0.034476550852699996,-0.06144128489063405,-0.09036739571094188,0.0428395699421813,0.011991142400000005,-0.03976413858203501,-0.061810687695157886,0.03371657297156218,-3.0643322089336045,-4.763298990366686,2.5982904248879293,-12.653559673670163,-17.61119600389821,6.211662163832932
19,40,40,1583257165648709066,40,-2.364121,-9.381796,23.809604,1.287375,-2.865552,0.5892970000000001,149.47841374604684,-97.36760255266563,30.486079318434378,-5.30380186658576,-14.905235960598741,0.02172111042,0.06479838470430001,0.997071153969,0.0343289473224,-0.06423354389065139,-0.09353406253434572,0.043774156003124176,0.011988224000000002,-0.041977093017192144,-0.06484953230062587,0.034757982284453,-3.2348684708612847,-4.997480585505951,2.6785442468987117,-13.14198619286132,-18.0466679353366,6.184576868685678
20,41,41,1583257165668576207,41,-2.3631030000000006,-9.383379000000001,23.846242999999998,1.287348,-2.86845,0.589305,149.41129181329688,-97.46430626635315,30.53081419308282,-5.308426029930514,-14.909381316110561,0.021698020638900004,0.0647689636435,0.9970752264849999,0.0342807523189,-0.0671219327499557,-0.09670371368751772,0.04473487464844084,0.012470220800000004,-0.04427470540234566,-0.06795858923390767,0.035798601250078124,-3.411928703687542,-5.237072932776564,2.758737162608771,-13.644741058615846,-18.46363514805391,6.179883264204669
21,42,42,1583257165679538496,42,-2.342444,-9.37216,23.846225,1.286286,-2.870866,0.5901529999999999,149.34118913492188,-97.5642253705344,30.576493189306248,-5.318367981121736,-14.915599349378295,0.021711092758400004,0.06475137828239999,0.997076920844,0.0342564064307,-0.07010267837500805,-0.09991910418125373,0.045678996223429635,0.012529356800000002,-0.046605640389849164,-0.07103964130156441,0.03679583272421851,-3.5915568664956314,-5.4745071492589386,2.8355865207223987,-13.842632697520086,-18.29732374483188,5.922219660753707
22,43,43,1583257165689517477,43,-2.3275640000000006,-9.40665,23.885669,1.280904,-2.869699,0.587784,149.26799432701563,-97.66741024738752,30.623154865440632,-5.320171404826191,-14.91790232466264,0.021806677408599998,0.0645588822681,0.997090843137,0.0341536246039,-0.07319480790624766,-0.1031848768531205,0.046661676134384315,0.012536128000000002,-0.048964046286721435,-0.07408171415211129,0.03775718394304715,-3.7733020119767846,-5.708937521706758,2.909670849190288,-14.005773115548768,-18.0658393884763,5.7091389879607455
23,44,44,1583257165708296558,44,-2.333266,-9.427617,23.851439000000006,1.276929,-2.864656,0.586194,149.19165343323436,-97.7737898868547,30.67077403136875,-5.3253504677723145,-14.921126490060725,0.0218130837206,0.0644152780372,0.997099973536,0.0341541228668,-0.07634089378126419,-0.10637963946717832,0.047619165928118434,0.012977702400000004,-0.05140895048593848,-0.07717886813882871,0.03872364474187488,-3.9617129508925486,-5.947612595679394,2.984148935730745,-14.519457210015887,-18.3929475835392,5.7394830514139885
24,45,45,1583257165717786912,45,-2.342911,-9.446328000000001,23.85404,1.26926,-2.8560000000000003,0.584548,149.11209416585936,-97.88345317457659,30.719569672495307,-5.336494701433172,-14.927344523328454,0.021832288545099998,0.06425868967489999,0.997111285647,0.0341065391563,-0.07955926737500363,-0.1096632877218866,0.04879564112655643,0.012931648,-0.0538721578453135,-0.08021710234523596,0.0396700944801557,-4.151534380898965,-6.181747151813947,3.05708491575122,-14.628153473373365,-18.04304298224188,5.620644146629481
25,46,46,1583257165738105274,46,-2.396455,-9.460376,23.82031700000001,1.2628110000000001,-2.837436,0.580381,149.02921537884376,-97.99636577541719,30.76937555480468,-5.342922288482381,-14.931489878840274,0.0219490145376,0.0638036120656,0.997141180983,0.0340118367046,-0.08287878701560203,-0.11291260084060185,0.04980588230937144,0.013486272,-0.05642298279531275,-0.08330157915039038,0.04062685409062397,-4.34810785972608,-6.419445287842814,3.1308154024438006,-15.148484641490533,-18.31766209983525,5.681870982476168
26,47,47,1583257165747757801,47,-2.418768,-9.470316,23.820399000000002,1.26265,-2.83285,0.579512,148.942989495375,-98.1124407197594,30.82018519512655,-5.348656251029876,-14.936326126937402,0.021947690782499998,0.0635118672672,0.997163232448,0.0339120839879,-0.08622588346875659,-0.1160749443422162,0.05080964032187296,0.013479743999999998,-0.058982905024218726,-0.08629882176929868,0.04155860489328038,-4.545382399503128,-6.6504209212307,3.202618642677193,-15.202510296915431,-17.799607840344592,5.53335215093505
27,48,48,1583257165757602152,48,-2.387828,-9.434239000000002,23.816017999999996,1.275443,-2.83303,0.5770529999999999,148.85328715143748,-98.23175492922813,30.87204397971718,-5.358228269153519,-14.943004755262,0.0219929885776,0.0628523578495,0.9972100159749999,0.033735346513900005,-0.08970234393751753,-0.11931420946872605,0.051858784590628204,0.012970278399999998,-0.06162431127343807,-0.08933436951968687,0.04250224890007761,-4.748936318561699,-6.8843484517889255,3.2753384054310213,-15.686416270253416,-18.02708903066057,5.603981858499017
28,49,49,1583257165777367731,49,-2.378816,-9.388259000000001,23.885672999999997,1.28462,-2.836599,0.575378,148.76014268045313,-98.3542344214422,30.92495299821875,-5.36363854026688,-14.948762193472865,0.0220270850897,0.062492442575400015,0.9972338642399999,0.0336767301866,-0.09314447098435608,-0.12247949221406886,0.052909018501569705,0.0134615168,-0.06434825321796467,-0.09239888460671963,0.0434577177939838,-4.9588506618249815,-7.120508283758731,3.348969426009792,-16.17656778485917,-18.19911622298718,5.6742058543704115
29,50,50,1583257165788125746,50,-2.326835,-9.34285,23.954615,1.295074,-2.842822,0.57376,148.66340431578126,-98.47995925644844,30.978909152937497,-5.368910086479901,-14.951986358870945,0.0220305692881,0.062116781907699994,0.9972588530140001,0.033629444042700005,-0.09673836467186447,-0.12572483500623832,0.053956154718747484,0.013467596799999999,-0.06715806351171665,-0.0954924015122664,0.04442514618812439,-5.1753822526294515,-7.358903074406363,3.4235220780655133,-16.6865108013062,-18.371348191447023,5.745229271959619
30,51,51,1583257165797599040,51,-2.292205,-9.311219,24.023446,1.309035,-2.8509700000000002,0.571337,148.56304199935937,-98.60890960314372,31.033929402268747,-5.375383915162556,-14.957052904496505,0.0221990790784,0.061371913362,0.997309303628,0.0333892503028,-0.10036231642189364,-0.1289503466952766,0.055020249331249715,0.012914931199999998,-0.07004882265937623,-0.09861380469062413,0.0454026574197652,-5.3981519813428696,-7.599446856758799,3.498851740885484,-17.167238602783232,-18.53695531214924,5.8051078257642015
31,52,52,1583257165817540696,52,-2.268962,-9.29953,24.095340999999998,1.311633,-2.852646,0.569703,148.45911879685937,-98.74100588808749,31.089919027696872,-5.380470494841787,-14.960967962479891,0.0222635517014,0.0609446394209,0.997338677429,0.0332512811176,-0.10392320249999898,-0.13209628494377054,0.05598962542812558,0.013454719999999998,-0.07301646275937372,-0.10175248625874928,0.04638618703320265,-5.626846364453528,-7.8413221586203,3.5746451965057706,-17.623808515867157,-18.63956581155744,5.840848955006832
32,53,53,1583257165827243922,53,-2.2708079999999997,-9.297689,24.060234,1.311641,-2.849756,0.5673199999999999,148.35149455426563,-98.8763459098172,31.146976299264054,-5.380470494841787,-14.961658855065195,0.022517055796500002,0.0605668307581,0.997361948748,0.033072411463599995,-0.1076242425937437,-0.13534002172971782,0.0570572715671851,0.0134067968,-0.07606367188593452,-0.10491015189812458,0.04737765912046825,-5.861672552241116,-8.084660424425262,3.651050720669174,-18.09634199051161,-18.752305775060307,5.888016614552022
33,54,54,1583257165847149081,54,-2.226269,-9.246905,24.130963,1.317185,-2.847305,0.56324,148.24012590384373,-99.01492367139059,31.20510969903749,-5.380470494841787,-14.964883020463278,0.022798857282199998,0.059793338914599994,0.997411961928,0.0327772319039,-0.1113686504218947,-0.1385777615733872,0.058133399773435464,0.013457075199999998,-0.07918533036250039,-0.10808546791882634,0.04837739547687399,-6.10223600856488,-8.329358876416256,3.7280931117939273,-18.538471441660725,-18.857125406231308,5.937095307365782
34,55,55,1583257165857650919,55,-2.197785,-9.237105,24.237437999999997,1.324691,-2.851858,0.5615760000000001,148.12515758892192,-99.15667243632342,31.26423349706562,-5.380470494841787,-14.966034508105452,0.023008797495,0.0594020958809,0.99743737737,0.0325678440813,-0.1149683149218106,-0.14174876493282795,0.0591237980281285,0.013472511999999999,-0.0823716875273405,-0.11127043576023253,0.049380065529764934,-6.347785321024957,-8.57480112384993,3.805361581514908,-18.92269501829129,-18.9144442974016,5.954517536260313
35,56,56,1583257165867460304,56,-2.1681050000000006,-9.229711,24.344815,1.332175,-2.860762,0.5599729999999999,148.0063872024219,-99.30174349876404,31.324493940142197,-5.380470494841785,-14.963961830349536,0.0232358658457,0.0590218712984,0.997460021371,0.0324039968622,-0.11877038650001735,-0.1450710624406213,0.0602604430765723,0.0134387712,-0.0856287406437474,-0.11447022113757654,0.050392929291328235,-6.5987826549725455,-8.821385250732034,3.883415606032928,-19.342534308527576,-19.002440620151482,6.015054516370706
36,57,57,1583257165887544683,57,-2.1364,-9.197408,24.487115,1.342414,-2.8681959999999997,0.5575,147.88380363614064,-99.4501488070109,31.385870586329684,-5.380470494841785,-14.964192127877974,0.0236628080405,0.058114886559300014,0.997518513619,0.0319303376724,-0.1225835662812642,-0.14840530824686482,0.06137664618749027,0.013975795200000002,-0.08895148959609286,-0.11768368252601392,0.05141471596570284,-6.854842687955951,-9.069023288066557,3.962157254377345,-19.732679607100795,-19.083657813830275,6.068044670665446
37,58,58,1583257165897374348,58,-2.1625550000000002,-9.230659,24.561982000000004,1.338219,-2.86291,0.555002,147.75765255331248,-99.60180754623123,31.448141201393753,-5.380470494841785,-14.966264805633886,0.0239693024276,0.057705804770800014,0.997543068651,0.0316755240396,-0.12615108282815868,-0.15165873922032347,0.062270615064068835,0.0134482432,-0.09232180107578217,-0.12090532259054428,0.052433780445234036,-7.114568018105983,-9.31729159633041,4.040689123014841,-20.01513733317045,-19.1322281985532,6.0518784783218385
38,59,59,1583257165907410517,59,-2.271538,-9.287742,24.642997,1.318763,-2.835236,0.547512,147.62767853990627,-99.75690524487808,31.5115004022,-5.380470494841785,-14.96373153282111,0.0245517643891,0.0565827770821,0.997611459402,0.0310962421046,-0.12997401340621195,-0.15509769864685552,0.06335920080624646,0.0134598912,-0.09574843750156106,-0.12414183773733994,0.053459761988437285,-7.378633901141693,-9.566706218718537,4.119754039311799,-20.34963209368757,-19.220566269433828,6.092956574566983
39,60,60,1583257165927336171,60,-2.326444,-9.326637,24.682464000000003,1.309523,-2.818136,0.544113,147.49418430759374,-99.91529280591094,31.575612020167192,-5.380470494841785,-14.962349747650508,0.0247829575653,0.05596154331,0.9976522083849999,0.0307275412132,-0.13349423231252902,-0.15838756103285334,0.06411161796719256,0.013931353600000002,-0.09921147192265492,-0.12738451266226533,0.05447663508664071,-7.645504712269938,-9.816595530291341,4.198117034169446,-20.565787448844322,-19.257147103564648,6.038864607500327
40,61,61,1583257165938308477,61,-2.375931,-9.368244,24.720774,1.305194,-2.805365,0.5407390000000001,147.35688279984382,-100.07725817715469,31.640764980151573,-5.380470494841787,-14.962580045178935,0.024987719083099998,0.055220530429,0.997700101893,0.030344910553500002,-0.13730150774992467,-0.16196537124375254,0.0651529599843812,0.0134866048,-0.10272045067265337,-0.13064759554007707,0.05549753935343773,-7.915916117810652,-10.068057533982671,4.276790681796185,-20.838635242956904,-19.37834301740565,6.062804351200701
41,62,62,1583257165948399128,62,-2.472225,-9.383289999999999,24.870751000000002,1.296136,-2.787775,0.534033,147.21574471270313,-100.24292036741717,31.70692626761719,-5.380470494841787,-14.960507367423027,0.025490344259200003,0.053911654916500004,0.997783485598,0.029527812012099995,-0.1411380871406891,-0.16566219026248066,0.06616128746561856,0.0134430336,-0.10627222111093744,-0.13393474984413842,0.05652165391554718,-8.18962516673971,-10.321374546971374,4.355711723473869,-21.092760573187068,-19.52129505762344,6.081869206762493
42,63,63,1583257165968073255,63,-2.5374939999999997,-9.393163,24.945453999999998,1.294648,-2.781988,0.5306850000000001,147.07118384570308,-100.41205099959686,31.7737778171875,-5.380470494841787,-14.958664987195554,0.025840523875599996,0.0532693271456,0.997821586991,0.029098567769499997,-0.14456086700005244,-0.16913063217968727,0.06685154957030902,0.013927782400000002,-0.10984052406562768,-0.13723203761046676,0.057531147587343415,-8.464608256156621,-10.575472472005957,4.4335060397475115,-21.19094158355572,-19.581474254755953,5.995040695713637
43,64,64,1583257165978324914,64,-2.562643,-9.399920999999999,25.018605,1.2932350000000001,-2.772333,0.5273100000000001,146.9228074066719,-100.58508387137184,31.841537846846872,-5.380470494841787,-14.959586177309287,0.026188242505700003,0.0523695592489,0.9978757938259999,0.0285570536831,-0.14837643903118192,-0.1730328717749785,0.06776002965937168,0.013501427200000004,-0.11344230132812355,-0.14056469922585674,0.058538190773906075,-8.742170966388633,-10.832296401649186,4.511111514992618,-21.389734149732565,-19.79154755250275,5.980488094632487
44,65,65,1583257165988179920,65,-2.718073,-9.402505,25.131734,1.289195,-2.751098,0.5189199999999999,146.7706355935469,-100.76211971942968,31.910146521507805,-5.380470494841787,-14.95659230943964,0.026822607542699998,0.050851501543800005,0.997964473212,0.0275967882688,-0.15217181312499406,-0.1770358480578409,0.06860867466093268,0.013519654400000004,-0.11707292861562307,-0.14393332724265448,0.059528842450624876,-9.021956937679468,-11.091891999589613,4.587453816097439,-21.561064667992643,-20.005139817755676,5.883144474436063